AirNav   TITAN Aviation Fuels
 
 477 users online  

IS33 Willhoit Airport
Staunton, Illinois, USA

GOING TO STAUNTON?


FAA INFORMATION EFFECTIVE 03 NOVEMBER 2022

Location

FAA Identifier: IS33
Lat/Long: 39-02-44.1670N 089-50-26.3500W
39-02.736117N 089-50.439167W
39.0456019,-89.8406528
(estimated)
Elevation: 614 ft. / 187.1 m (surveyed)
Variation: 01E (1985)
From city: 3 miles NW of STAUNTON, IL
Time zone: UTC -6 (UTC -5 during Daylight Saving Time)
Zip code: 62088

Airport Operations

Airport use: Private use. Permission required prior to landing
Activation date: 11/1967
Control tower: no
ARTCC: KANSAS CITY CENTER
FSS: SAINT LOUIS FLIGHT SERVICE STATION
Attendance: IREG
Wind indicator: yes
Segmented circle: no

Airport Communications

WX AWOS-3 at 3LF (10 nm NE): 118.175 (217-324-4735)
WX AWOS-3 at ALN (13 nm SW): 128.0 (618-259-7231)

Nearby radio navigation aids

VOR radial/distance  VOR name  Freq  Var
TOYr007/18.7TROY VORTAC116.0004E
VLAr261/31.7VANDALIA VOR/DME114.3004E
STLr069/31.9ST LOUIS VORTAC117.4001E

Airport Services

Airframe service: NONE
Powerplant service: NONE

Runway Information

Runway E/W

Dimensions: 1900 x 75 ft. / 579 x 23 m
1300 FT ASPH ON E END, REMAINDER TURF.
Surface: asphalt/turf
RUNWAY E  RUNWAY W
Traffic pattern: leftleft
Obstructions: nonetrees

Airport Ownership and Management from official FAA records

Ownership: Privately-owned
Owner: ROBERT WILLHOIT
3185 WILLHOIT AIRPORT RD
STAUNTON, IL 62088
Phone 618-635-3252
Manager: ROBERT WILLHOIT
3185 WILLHOIT AIRPORT RD
STAUNTON, IL 62088
Phone 618-635-3252

Airport Operational Statistics

Aircraft based on the field: 8
Single engine airplanes: 8
    

Additional Remarks

FOR CD CTC ST LOUIS APCH AT 314-890-1018.

Instrument Procedures

There are no published instrument procedures at IS33.

Some nearby airports with instrument procedures:

3LF - Litchfield Municipal Airport (10 nm NE)
KALN - St Louis Regional Airport (13 nm SW)
KGRE - Greenville Airport (25 nm SE)
KSET - St Charles County Smartt Airport (28 nm W)
KBLV - Scott Air Force Base/MidAmerica Airport (30 nm S)
 
Loc | Ops | Rwys | IFR | FBO | Links
Com | Nav | Svcs | Stats | Notes
Area around IS33 (Willhoit Airport)
 
Road maps at: MapQuest Bing Google
 
Aerial photo
No photo
 
Sectional chart

 
Airport distance calculator
Flying to Willhoit Airport? Find the distance to fly.

From to IS33

Sunrise and sunset
Times for 28-Nov-2022
 Local
(UTC-6)
 Zulu
(UTC)
Morning civil twilight06:2812:28
Sunrise06:5712:57
Sunset16:3722:37
Evening civil twilight17:0723:07

Current date and time
Zulu (UTC)  28-Nov-2022 10:40:42
Local (UTC-6)  28-Nov-2022 04:40:42
 
METAR
K3LF 
10nm NE 
281015Z AUTO 00000KT 10SM OVC026 05/04 A2992 RMK AO2 T00470042
KALN 
13nm SW 
281015Z AUTO 00000KT 10SM OVC027 06/04 A2991 RMK AO2 T00580042
TAF
KSTL 
30nm SW 
280530Z 2806/2912 VRB03KT P6SM OVC025 FM281200 00000KT P6SM BKN035 FM282000 17008KT P6SM FEW250 FM290600 16010G20KT P6SM FEW250
KBLV 
31nm S 
280801Z 2808/2914 28006KT 8000 BR SCT010 OVC030 QNH2988INS TEMPO 2809/2811 BKN010 BECMG 2814/2815 21009KT 9999 NSW SCT010 BKN030 QNH2990INS BECMG 2817/2818 17006KT 9999 SCT010 BKN030 QNH2977INS BECMG 2910/2911 16012KT 9000 BR OVC010 QNH2974INS TX11/2819Z TN03/2813Z
KCPS 
32nm SW 
280530Z 2806/2906 VRB03KT P6SM OVC025 FM281300 00000KT P6SM BKN035 FM282200 17008KT P6SM FEW250
NOTAMs
Click for the latest NOTAMs
NOTAMs are issued by the DoD/FAA and will open in a separate window not controlled by AirNav.

 

 
 

Would you like to see your business listed on this page?

 If your business provides an interesting product or service to pilots, flight crews, aircraft, or users of the Willhoit Airport, you should consider listing it here.  To start the listing process, click on the button below
 
Add a business
 

Other Pages about Willhoit Airport

Update a link
 
Copyright © AirNav, LLC. All rights reserved. Privacy Policy  Contact